| time (UTC) | temp C | wind direction | speed KPH | gust KPH | rain 1hr cm | rain 24hr cm | rain mn cm | humidity % | barometer mb |
| 20260505184004 | 11 | 164 | 16.1 | 16.1 | 0.00 | 0.00 | 0.00 | 77 | 1013.9 |
| 20260505182004 | 12 | 162 | 16.1 | 16.1 | 0.00 | 0.00 | 0.00 | 74 | 1014.2 |
| 20260505180004 | 12 | 272 | 4.8 | 4.8 | 0.00 | 0.00 | 0.00 | 74 | 1014.2 |
| 20260505175004 | 12 | 110 | 4.8 | 8.0 | 0.00 | 0.00 | 0.00 | 74 | 1013.9 |
| 20260505174004 | 12 | 131 | 8.0 | 8.0 | 0.00 | 0.00 | 0.00 | 75 | 1014.2 |
| 20260505172004 | 12 | 146 | 8.0 | 8.0 | 0.00 | 0.00 | 0.00 | 74 | 1014.2 |
| 20260505171004 | 12 | 146 | 8.0 | 8.0 | 0.00 | 0.00 | 0.00 | 74 | 1014.2 |
| 20260505170004 | 12 | 221 | 4.8 | 4.8 | 0.00 | 0.00 | 0.00 | 72 | 1014.2 |
| 20260505164004 | 13 | 236 | 8.0 | 12.9 | 0.00 | 0.00 | 0.00 | 72 | 1014.2 |
| 20260505163005 | 13 | 267 | 3.2 | 12.9 | 0.00 | 0.00 | 0.00 | 69 | 1014.2 |
| 20260505162004 | 13 | 272 | 3.2 | 3.2 | 0.00 | 0.00 | 0.00 | 69 | 1014.2 |
| 20260505161005 | 13 | 272 | 3.2 | 4.8 | 0.00 | 0.00 | 0.00 | 69 | 1014.2 |
| 20260505153004 | 13 | 134 | 8.0 | 8.0 | 0.00 | 0.00 | 0.00 | 68 | 1014.2 |
| 20260505152004 | 13 | 176 | 4.8 | 8.0 | 0.00 | 0.00 | 0.00 | 68 | 1014.2 |
| 20260505151005 | 13 | 252 | 8.0 | 9.7 | 0.00 | 0.00 | 0.00 | 69 | 1014.2 |
| 20260505125004 | 12 | 248 | 11.3 | 11.3 | 0.00 | 0.00 | 0.00 | 68 | 1015.2 |
| 20260505124004 | 12 | 274 | 11.3 | 11.3 | 0.00 | 0.00 | 0.00 | 68 | 1014.9 |
| 20260505123004 | 12 | 274 | 8.0 | 11.3 | 0.00 | 0.00 | 0.00 | 68 | 1014.9 |
| 20260505122004 | 12 | 227 | 9.7 | 9.7 | 0.00 | 0.00 | 0.00 | 69 | 1015.2 |
| 20260505121006 | 12 | 227 | 8.0 | 9.7 | 0.00 | 0.00 | 0.00 | 69 | 1015.2 |
| 20260505120005 | 13 | 115 | 9.7 | 9.7 | 0.00 | 0.00 | 0.00 | 69 | 1015.6 |
| 20260505115004 | 13 | 115 | 9.7 | 11.3 | 0.00 | 0.00 | 0.00 | 69 | 1015.6 |
| 20260505114005 | 13 | 160 | 9.7 | 11.3 | 0.00 | 0.00 | 0.00 | 69 | 1015.6 |
| 20260505113004 | 12 | 177 | 11.3 | 11.3 | 0.00 | 0.00 | 0.00 | 70 | 1015.2 |
| 20260505102004 | 12 | 140 | 6.4 | 9.7 | 0.00 | 0.00 | 0.00 | 73 | 1015.9 |
| 20260505101004 | 12 | 277 | 9.7 | 9.7 | 0.00 | 0.00 | 0.00 | 74 | 1015.9 |
| 20260505100004 | 12 | 192 | 8.0 | 8.0 | 0.00 | 0.00 | 0.00 | 73 | 1015.8 |
| 20260505095005 | 12 | 272 | 8.0 | 9.7 | 0.00 | 0.00 | 0.00 | 72 | 1015.6 |
| 20260505094004 | 11 | 182 | 8.0 | 9.7 | 0.00 | 0.00 | 0.00 | 76 | 1016.0 |
| 20260505093004 | 11 | 138 | 9.7 | 9.7 | 0.00 | 0.00 | 0.00 | 76 | 1016.3 |
| 20260505092004 | 12 | 218 | 9.7 | 9.7 | 0.00 | 0.00 | 0.00 | 75 | 1015.6 |
| 20260505091004 | 11 | 182 | 8.0 | 8.0 | 0.00 | 0.00 | 0.00 | 77 | 1015.6 |
| 20260505085004 | 11 | 116 | 8.0 | 8.0 | 0.00 | 0.00 | 0.00 | 80 | 1015.6 |
| 20260505084004 | 11 | 110 | 8.0 | 8.0 | 0.00 | 0.00 | 0.00 | 82 | 1015.6 |
| 20260505083005 | 11 | 188 | 8.0 | 9.7 | 0.00 | 0.00 | 0.00 | 82 | 1015.6 |